Tracking 20624 objects as of 28-Mar-2020
HD Live streaming from Space Station
objects crossing your sky now

COSMOS 2488

Track COSMOS 2488 now!
10-day predictions
COSMOS 2488 is classified as:


NORAD ID: 39483
Int'l Code: 2013-076A
Perigee: 1,486.2 km
Apogee: 1,516.8 km
Inclination: 82.5 °
Period: 115.9 minutes
Semi major axis: 7872 km
RCS: Unknown
Launch date: December 25, 2013
Source: Commonwealth of Independent States (former USSR) (CIS)
Launch site: PLESETSK MISSILE AND SPACE COMPLEX (PKMTR)

COSMOS 2488 is a Russian military satellite apparently designed to relay messages between military users posted in remote areas.
aabbcc
Your satellite tracking list
Your tracking list is empty




NASA's NSSDC Master Catalog

Two Line Element Set (TLE):
1 39483U 13076A   20087.75686261  .00000026  00000-0  11915-3 0  9990
2 39483  82.4850 144.8793 0019465  12.9848 347.1730 12.42895517283797
Source of the keplerian elements: AFSPC